User: anonymous   Login
Location: Unspecified
(33.6682°S, 0.0000°E)
Time: 13:20:58
(UTC+00:00)
Language:

Explorer 7 - Orbit

View from above orbital plane
View from above orbital plane
View from above satellite
View from above satellite

Ground track
Ground track

The orbit data is extracted from the following two-line orbital elements,

1    22U 59009A   19174.89118096 -.00000151 +00000-0 +12009-4 0  9995
2    22 050.2856 348.7913 0140125 325.2848 033.9015 14.94877040416581
Epoch (UTC): 23 June 2019 21:23:18
Eccentricity: 0.0140125
inclination: 50.2856°
perigee height: 485 km
apogee height: 680 km
right ascension of ascending node: 348.7913°
argument of perigee: 325.2848°
revolutions per day: 14.94877040
mean anomaly at epoch: 33.9015°
orbit number at epoch: 41658

The dashed part of the orbit path shows where the satellite is in the earth's shadow,  

DLR